NOAA 16 DEB, 41086

Orbit data source: Space-Track

NOAA 16 DEB, 41086 is space debris in SSO originally from a launch on Thu, 21 Sep 2000 UTC launched from the Air Force Western Test Range (AFWTR). Debris objects in space refer to the collection of defunct objects orbiting the Earth. Examples of debris include non-operational satellites, rocket bodies, and fragments generated from explosions, collisions, or faulty payload assembly.

Loading next visibility...
Identifier
41086, 2000-055AV
Orbit
SSO
Country
Flag of USUS
Related business
Manufacturer
Unknown
Mission
Spacecraft
Bus & Motor
Unknown
Mass
Unknown
Launch date (UTC)
2000-09-21 (26 years ago)
Launch vehicle
Unknown
Launch site
Air Force Western Test Range (AFWTR)
Object type
Payload
Rocket body
Debris
Shape & HBR
Unknown shape, 0.1 m
Radar Cross Section
Small (<0.1 m²)

Expand to show TLE details & history
Last TLE update: 2 days ago

TLE from 2 days ago
0 NOAA 16 DEB
1 41086U 00055AV  26124.44543417  .00013168  00000-0  22530-2 0  9999
2 41086  98.8139 296.4386 0028442 111.3003 249.1241 14.68710776545314
Epoch: 2026-05-04T10:41Z
TLE epoch observation values (Epoch: 2026-05-04T10:41:25.512Z)
Latitude
0.00003°
Longitude
-86.25223°
Altitude
675.354 km
Speed
7.515 km/s
True Right ascension
19h 45m 45s
True Declination
0° 00' 00"
Sunlit
Object was in daylight at epoch
Visualization orbit readout
Latitude
Unknown
Longitude
Unknown
Altitude
Unknown
Speed
Unknown
Apparent Right ascension
Unknown
Apparent Declination
Unknown
Sunlit
N/A
Visualization observer readout
Local Sidereal Time
14:18:21
Azimuth
Unknown
Elevation
Unknown
Doppler factor
Unknown
Orbital elements
Apogee altitude
682.31 km
Perigee altitude
642.261 km
Semi-major axis
7,040.423 km
Eccentricity
0.00284
Inclination
98.8139°
RAAN
296.4386°
Arg. of periapsis
111.3003°
True anomaly
248.81996°
Mean anomaly
249.1241°
Eccentric anomaly
248.97199°
Mean motion
3.67405 °/min
Orbital period
97.98 mins
BSTAR
0.002253
Loading maneuver chart data...
Computing Atmospheric mass density...
Loading historical data...
Loading historical data...
Loading historical data...
Loading historical data...
Loading historical data...
Loading historical data...
Loading historical data...

Documentation

Showing up to 5 results
|